N2PUI Weather Reports


Display with metric or nautical units.
time (UTC)temp
F
wind
direction
speed
MPH
gust
MPH
rain 1hr
in
rain 24hr
in
rain mn
in
humidity
%
barometer
mb
20260901180424 78 260 3.0 3.0 0.00 0.43 0.43 86 1015.5
20260901175922 78 206 0.0 0.0 0.00 0.43 0.43 86 1015.7
20260901175418 78 185 0.0 0.0 0.00 0.43 0.43 87 1015.6
20260901174913 77 278 2.0 2.0 0.00 0.43 0.43 87 1015.5
20260901174409 77 156 1.0 1.0 0.00 0.43 0.43 89 1015.4
20260901173904 77 166 0.0 0.0 0.00 0.43 0.43 88 1015.7
20260901173359 77 169 1.0 1.0 0.00 0.43 0.43 88 1015.5
20260901172855 77 264 4.0 5.0 0.00 0.43 0.43 88 1015.5
20260901172355 76 298 3.0 3.0 0.00 0.43 0.43 92 1015.5
20260901171853 75 251 2.0 2.0 0.00 0.43 0.43 95 1015.5
20260901171352 74 204 1.0 1.0 0.00 0.43 0.43 95 1015.7
20260901170850 73 162 0.0 0.0 0.00 0.43 0.43 95 1015.3
20260901170346 73 146 0.0 0.0 0.00 0.43 0.43 95 1015.7
20260901165840 72 144 0.0 0.0 0.00 0.43 0.43 95 1015.7
20260901165334 72 276 3.0 3.0 0.00 0.43 0.43 95 1015.6
20260901164831 72 174 1.0 2.0 0.00 0.43 0.43 95 1015.6
20260901164326 72 205 0.0 1.0 0.00 0.43 0.43 95 1015.6
20260901163826 72 151 1.0 1.0 0.00 0.43 0.43 95 1015.6
20260901163321 72 155 0.0 0.0 0.00 0.43 0.43 95 1015.5
20260901162816 72 161 0.0 0.0 0.00 0.43 0.43 95 1015.8
20260901162315 72 156 0.0 0.0 0.00 0.43 0.43 95 1016.0
20260901161814 72 162 0.0 0.0 0.00 0.43 0.43 95 1015.9
20260901161309 71 131 0.0 0.0 0.00 0.43 0.43 95 1015.9
20260901160804 71 138 0.0 0.0 0.00 0.43 0.43 95 1015.7
20260901160300 71 137 0.0 0.0 0.00 0.43 0.43 95 1015.9
20260901155759 71 131 0.0 0.0 0.00 0.43 0.43 95 1015.9
20260901155254 71 156 0.0 0.0 0.00 0.43 0.43 95 1015.8
20260901154749 71 175 0.0 0.0 0.00 0.43 0.43 95 1015.9
20260901154244 71 173 0.0 0.0 0.00 0.43 0.43 95 1015.9
20260901153740 70 164 0.0 0.0 0.00 0.43 0.43 95 1015.8
20260901153239 71 171 0.0 0.0 0.00 0.43 0.43 95 1015.9
20260901152738 71 147 0.0 0.0 0.00 0.43 0.43 95 1015.9
20260901152237 70 146 0.0 0.0 0.00 0.43 0.43 95 1016.1
20260901151733 70 138 0.0 0.0 0.00 0.43 0.43 95 1016.1
20260901151232 70 157 0.0 0.0 0.00 0.43 0.43 95 1016.2
20260901150726 70 157 0.0 0.0 0.00 0.43 0.43 95 1016.2
20260901150225 70 157 0.0 0.0 0.00 0.43 0.43 95 1016.0
20260901145723 70 165 0.0 0.0 0.00 0.43 0.43 95 1016.0
20260901145222 70 236 0.0 0.0 0.00 0.43 0.43 95 1016.2
20260901144718 70 150 0.0 0.0 0.00 0.43 0.43 95 1016.0
20260901144213 70 150 0.0 0.0 0.00 0.43 0.43 95 1016.0
20260901143708 70 172 0.0 0.0 0.00 0.43 0.43 95 1016.0
20260901143205 70 170 0.0 0.0 0.00 0.43 0.43 95 1015.8
20260901142701 69 142 1.0 2.0 0.00 0.43 0.43 95 1015.9
20260901142159 70 166 1.0 2.0 0.00 0.43 0.43 95 1015.9
20260901141654 70 173 0.0 0.0 0.00 0.43 0.43 95 1015.9
20260901141149 69 147 0.0 0.0 0.00 0.43 0.43 95 1015.6
20260901140648 69 159 0.0 0.0 0.00 0.43 0.43 95 1015.6
20260901140146 69 163 0.0 0.0 0.00 0.43 0.43 95 1015.9
20260901135642 69 137 0.0 0.0 0.00 0.43 0.43 95 1015.9
20260901135136 69 163 0.0 0.0 0.00 0.43 0.43 95 1016.0
20260901134633 69 126 1.0 1.0 0.00 0.43 0.43 95 1015.8
20260901134127 69 147 0.0 0.0 0.00 0.43 0.43 95 1015.9
20260901133627 69 127 0.0 1.0 0.00 0.43 0.43 95 1015.9
20260901133125 69 144 0.0 0.0 0.00 0.43 0.43 95 1016.1
20260901132620 68 148 0.0 0.0 0.00 0.43 0.43 95 1016.1
20260901132119 68 120 1.0 1.0 0.00 0.43 0.43 95 1016.3
20260901131620 68 166 0.0 0.0 0.00 0.43 0.43 95 1016.5
20260901131114 69 160 0.0 0.0 0.00 0.43 0.43 95 1016.0
20260901130610 69 141 0.0 1.0 0.00 0.43 0.43 95 1016.2
20260901130108 68 136 1.0 1.0 0.00 0.43 0.43 95 1016.3
20260901125606 69 134 0.0 0.0 0.00 0.43 0.43 95 1016.3
20260901125101 68 125 0.0 0.0 0.00 0.43 0.43 95 1016.2
20260901124556 68 135 0.0 1.0 0.00 0.43 0.43 95 1016.0
20260901124051 68 130 0.0 0.0 0.00 0.43 0.43 95 1016.2
20260901123546 67 119 1.0 1.0 0.00 0.43 0.43 95 1016.7
20260901123045 67 127 2.0 2.0 0.00 0.43 0.43 95 1016.8
20260901122543 67 154 0.0 1.0 0.00 0.43 0.43 95 1016.8
20260901122037 67 131 0.0 0.0 0.00 0.43 0.43 95 1016.9
20260901121532 67 177 0.0 0.0 0.00 0.43 0.43 95 1017.1
20260901121028 67 150 0.0 0.0 0.00 0.43 0.43 95 1016.8
20260901120527 67 124 0.0 0.0 0.00 0.43 0.43 95 1016.8
20260901120023 67 97 0.0 0.0 0.00 0.43 0.43 95 1016.5
20260901115518 67 169 0.0 0.0 0.00 0.43 0.43 95 1016.7
20260901115015 66 138 0.0 0.0 0.00 0.43 0.43 95 1016.5
20260901114511 66 136 0.0 0.0 0.07 0.43 0.43 95 1016.8
20260901114009 66 116 2.0 2.0 0.12 0.43 0.43 95 1016.4
20260901113508 66 155 0.0 0.0 0.24 0.42 0.42 95 1016.5
20260901113004 66 164 0.0 0.0 1.75 0.41 0.41 95 1016.9
20260901112458 66 165 0.0 0.0 1.56 0.38 0.38 95 1016.9
20260901111954 66 167 0.0 0.0 0.00 0.12 0.12 95 1017.0
20260901111452 66 179 0.0 0.0 0.00 0.12 0.12 95 1017.1
20260901110950 66 200 0.0 0.0 0.00 0.12 0.12 95 1016.7
20260901110446 66 149 0.0 0.0 0.00 0.12 0.12 95 1016.3
20260901105942 66 149 0.0 0.0 0.05 0.12 0.12 95 1016.2
20260901105438 66 146 0.0 0.0 0.12 0.12 0.12 95 1016.1
20260901104933 66 230 1.0 2.0 0.07 0.11 0.11 95 1016.3
20260901104428 66 165 0.0 0.0 0.00 0.10 0.10 95 1016.4
20260901103923 66 169 0.0 0.0 0.17 0.10 0.10 95 1016.3
20260901103418 66 161 0.0 0.0 0.31 0.10 0.10 95 1016.4
20260901102913 66 151 0.0 0.0 0.07 0.06 0.06 95 1016.3
20260901102413 66 152 0.0 0.0 0.00 0.05 0.05 95 1016.1
20260901101908 66 146 0.0 0.0 0.00 0.05 0.05 95 1016.0
20260901101403 66 164 0.0 0.0 0.00 0.05 0.05 95 1015.9
20260901100902 66 161 0.0 0.0 0.00 0.05 0.05 95 1016.0
20260901100357 66 155 0.0 0.0 0.00 0.05 0.05 95 1016.0
20260901095851 66 144 0.0 0.0 0.00 0.05 0.05 95 1016.1
20260901095348 65 145 0.0 0.0 0.00 0.05 0.05 95 1016.2
20260901094842 65 140 0.0 0.0 0.00 0.05 0.05 95 1016.3
20260901094337 65 148 0.0 0.0 0.00 0.05 0.05 95 1016.3
20260901093832 65 157 0.0 0.0 0.00 0.05 0.05 95 1016.0
20260901093331 66 150 0.0 0.0 0.00 0.05 0.05 95 1016.3
20260901092827 66 164 0.0 0.0 0.00 0.05 0.05 95 1016.5
20260901092322 66 153 0.0 0.0 0.00 0.05 0.05 95 1016.4
20260901091818 66 140 0.0 0.0 0.00 0.05 0.05 95 1016.3
20260901091313 66 123 0.0 0.0 0.00 0.05 0.05 95 1016.3
20260901090808 66 166 0.0 0.0 0.00 0.05 0.05 95 1016.5
20260901090303 66 165 0.0 0.0 0.00 0.05 0.05 95 1016.4
20260901085759 66 148 0.0 0.0 0.00 0.05 0.05 95 1016.2
20260901085253 66 131 1.0 1.0 0.00 0.05 0.05 95 1016.7
20260901084749 65 132 0.0 0.0 0.00 0.05 0.05 95 1016.7
20260901084245 65 113 0.0 1.0 0.00 0.05 0.05 95 1016.9
20260901083740 65 139 0.0 1.0 0.00 0.05 0.05 95 1016.8
20260901083240 65 144 0.0 0.0 0.05 0.05 0.05 95 1016.9
20260901082738 65 165 0.0 0.0 0.05 0.05 0.05 95 1017.0
20260901082233 65 137 0.0 0.0 0.12 0.04 0.04 95 1017.0
20260901081729 65 157 0.0 0.0 0.19 0.04 0.04 95 1017.2
20260901081229 65 156 0.0 0.0 0.07 0.02 0.02 95 1017.2
20260901080724 65 155 0.0 0.0 0.00 0.01 0.01 95 1017.3
20260901080222 65 145 0.0 0.0 0.00 0.01 0.01 95 1017.1
20260901075717 65 144 0.0 0.0 0.00 0.01 0.01 95 1017.3
20260901075212 65 144 0.0 0.0 0.05 0.01 0.01 95 1017.1
20260901074706 65 153 0.0 0.0 0.05 0.01 0.01 95 1017.2
20260901074201 65 154 0.0 0.0 0.00 0.00 0.00 95 1017.1
20260901073658 65 154 0.0 0.0 0.00 0.00 0.00 95 1017.2
20260901073153 65 153 0.0 0.0 0.00 0.00 0.00 95 1017.3
20260901072648 65 143 0.0 0.0 0.00 0.00 0.00 95 1017.1
20260901072142 65 157 0.0 0.0 0.00 0.00 0.00 95 1017.1
20260901071637 65 157 0.0 0.0 0.00 0.00 0.00 95 1017.1
20260901071137 65 157 0.0 0.0 0.00 0.00 0.00 95 1017.2
20260901070631 65 157 0.0 0.0 0.00 0.00 0.00 95 1017.4
20260901070127 65 157 0.0 0.0 0.00 0.00 0.00 95 1017.5
20260901065620 65 157 0.0 0.0 0.00 0.00 0.00 95 1017.5
20260901065115 65 158 0.0 0.0 0.00 0.00 0.00 95 1017.4
20260901064612 65 160 0.0 0.0 0.00 0.00 0.00 95 1017.3
20260901064108 65 156 0.0 0.0 0.00 0.00 0.00 95 1017.3
20260901063605 65 156 0.0 0.0 0.00 0.00 0.00 95 1017.4
20260901063101 65 157 0.0 0.0 0.00 0.00 0.00 95 1017.5
20260901062556 65 157 0.0 0.0 0.00 0.00 0.00 95 1017.2
20260901062052 65 157 0.0 0.0 0.00 0.00 0.00 95 1017.5
20260901061548 65 151 0.0 0.0 0.00 0.00 0.00 95 1017.4
20260901061043 65 150 0.0 0.0 0.00 0.00 0.00 95 1017.7
20260901060537 65 151 0.0 0.0 0.00 0.00 0.00 95 1017.5
20260901060032 65 152 0.0 0.0 0.00 0.00 0.00 95 1017.5
20260901055527 65 152 0.0 0.0 0.00 0.00 0.00 95 1017.5
20260901055024 65 152 0.0 0.0 0.00 0.00 0.00 95 1017.7
20260901054521 65 151 0.0 0.0 0.00 0.00 0.00 95 1017.9
20260901054017 65 162 0.0 0.0 0.00 0.00 0.00 95 1017.9
20260901053513 65 138 0.0 0.0 0.00 0.00 0.00 95 1018.0
20260901053009 66 132 0.0 0.0 0.00 0.00 0.00 95 1018.2
20260901052504 65 125 0.0 0.0 0.00 0.00 0.00 95 1018.0
20260901052003 66 137 0.0 0.0 0.00 0.00 0.00 95 1018.0
20260901051458 66 137 0.0 0.0 0.00 0.00 0.00 95 1018.2
20260901050957 66 136 0.0 0.0 0.00 0.00 0.00 95 1018.2
20260901050452 66 145 0.0 0.0 0.00 0.00 0.00 95 1017.8
20260901045947 66 147 0.0 0.0 0.00 0.00 0.00 95 1018.2
20260901045442 66 158 0.0 0.0 0.00 0.00 0.00 95 1018.2
20260901044937 66 155 0.0 0.0 0.00 0.00 0.00 95 1018.0
20260901044433 66 148 0.0 0.0 0.00 0.00 0.00 95 1018.0
20260901043928 66 148 0.0 0.0 0.00 0.00 0.00 95 1018.1
20260901043424 66 146 0.0 0.0 0.00 0.00 0.00 95 1018.1
20260901042918 66 155 0.0 0.0 0.00 0.00 0.00 95 1018.2
20260901042413 66 155 0.0 0.0 0.00 0.00 0.00 95 1018.2
20260901041908 66 157 0.0 0.0 0.00 0.00 0.00 95 1018.2
20260901041403 66 158 0.0 0.0 0.00 0.00 0.00 95 1018.0
20260901040902 66 157 0.0 0.0 0.00 0.00 0.00 95 1018.4
20260901040401 66 164 0.0 0.0 0.00 0.00 0.00 95 1018.1
20260901035856 66 164 0.0 0.0 0.00 0.39 0.39 95 1018.0
20260901035355 66 140 0.0 0.0 0.00 0.39 0.39 95 1018.0
20260901034853 66 140 0.0 0.0 0.00 0.39 0.39 95 1018.0
20260901034348 66 141 0.0 0.0 0.00 0.39 0.39 95 1018.3
20260901033844 66 140 0.0 0.0 0.00 0.39 0.39 95 1018.2
20260901033342 66 140 0.0 0.0 0.00 0.39 0.39 95 1018.1
20260901032841 66 141 0.0 0.0 0.00 0.39 0.39 95 1018.2
20260901032341 66 141 0.0 0.0 0.00 0.39 0.39 95 1018.3
20260901031836 66 141 0.0 0.0 0.00 0.39 0.39 95 1018.2
20260901031331 66 141 0.0 0.0 0.00 0.39 0.39 95 1018.3
20260901030825 66 141 0.0 0.0 0.00 0.39 0.39 95 1018.3
20260901030321 66 141 0.0 0.0 0.00 0.39 0.39 95 1018.3
20260901025820 66 141 0.0 0.0 0.00 0.39 0.39 95 1018.3
20260901025315 66 141 0.0 0.0 0.00 0.39 0.39 95 1018.3
20260901024810 66 140 0.0 0.0 0.00 0.39 0.39 95 1018.3
20260901024308 66 144 0.0 0.0 0.00 0.39 0.39 95 1018.2
20260901023801 66 143 0.0 0.0 0.00 0.39 0.39 95 1018.5
20260901023256 66 143 0.0 0.0 0.00 0.39 0.39 95 1018.3
20260901022752 66 143 0.0 0.0 0.00 0.39 0.39 95 1018.4
20260901022248 66 163 0.0 0.0 0.00 0.39 0.39 95 1018.5
20260901021742 66 152 0.0 0.0 0.00 0.39 0.39 95 1018.7
20260901021238 66 162 0.0 0.0 0.00 0.39 0.39 95 1018.5
20260901020733 66 160 0.0 0.0 0.00 0.39 0.39 95 1018.7
20260901020228 66 145 0.0 0.0 0.00 0.39 0.39 95 1018.8
20260901015723 66 154 0.0 0.0 0.00 0.39 0.39 95 1018.5
20260901015218 66 153 0.0 0.0 0.07 0.39 0.39 95 1018.8
20260901014713 66 154 0.0 0.0 0.07 0.39 0.39 95 1018.6
20260901014209 66 154 0.0 0.0 0.00 0.38 0.38 95 1018.6
20260901013704 66 154 0.0 0.0 0.05 0.38 0.38 95 1018.7
20260901013200 66 154 0.0 0.0 0.12 0.38 0.38 95 1018.8
20260901012655 66 154 0.0 0.0 0.07 0.37 0.37 95 1018.9
20260901012149 66 154 0.0 0.0 0.00 0.36 0.36 95 1018.9
20260901011640 66 154 0.0 0.0 0.00 0.36 0.36 95 1018.7
20260901011139 66 152 0.0 0.0 0.00 0.36 0.36 95 1018.7
20260901010633 66 156 0.0 0.0 0.00 0.36 0.36 95 1018.6
20260901010132 66 143 0.0 0.0 0.00 0.36 0.36 95 1018.7
20260901005626 66 129 0.0 0.0 0.00 0.36 0.36 95 1018.7
20260901005121 66 150 0.0 0.0 0.05 0.36 0.36 95 1018.4
20260901004621 66 130 0.0 0.0 0.05 0.36 0.36 95 1018.4
20260901004116 66 147 0.0 0.0 0.00 0.35 0.35 95 1018.7
20260901003612 66 130 0.0 0.0 0.00 0.35 0.35 95 1018.6
20260901003110 66 143 0.0 0.0 0.00 0.35 0.35 95 1018.5
20260901002610 66 117 0.0 0.0 0.00 0.35 0.35 95 1018.3
20260901002105 66 131 0.0 1.0 0.00 0.35 0.35 95 1018.2
20260901001559 66 125 2.0 2.0 0.00 0.35 0.35 95 1018.1
20260901001054 66 129 1.0 2.0 0.00 0.35 0.35 95 1018.1
20260901000549 66 130 2.0 2.0 0.00 0.35 0.35 95 1018.2
20260901000045 66 126 0.0 0.0 0.00 0.35 0.35 95 1018.2
20260831235538 66 135 1.0 1.0 0.00 0.35 0.35 95 1018.4
20260831235034 66 135 2.0 2.0 0.07 0.35 0.35 95 1018.3
20260831234528 66 122 0.0 0.0 0.07 0.35 0.35 95 1018.3
20260831234025 66 138 0.0 0.0 0.00 0.34 0.34 95 1018.5
20260831233520 66 138 0.0 0.0 0.00 0.34 0.34 95 1018.4
20260831233016 66 132 0.0 0.0 0.00 0.34 0.34 95 1018.3
20260831232511 66 116 1.0 1.0 0.00 0.34 0.34 95 1018.5
20260831232006 66 136 0.0 0.0 0.00 0.34 0.34 95 1018.5
20260831231502 66 146 0.0 0.0 0.00 0.34 0.34 95 1018.3
20260831230957 66 138 2.0 3.0 0.00 0.34 0.34 95 1018.6
20260831230453 66 151 0.0 0.0 0.00 0.34 0.34 95 1018.7
20260831225947 66 137 0.0 0.0 0.00 0.34 0.34 95 1018.9
20260831225443 66 139 0.0 0.0 0.00 0.34 0.34 95 1018.8
20260831224938 66 137 0.0 0.0 0.00 0.34 0.34 95 1018.8
20260831224437 66 142 0.0 0.0 0.00 0.34 0.34 95 1018.9
20260831223932 66 131 0.0 0.0 0.00 0.34 0.34 95 1019.0
20260831223428 66 145 0.0 0.0 0.00 0.34 0.34 95 1018.9
20260831222925 66 142 0.0 0.0 0.00 0.34 0.34 95 1019.0
20260831222420 66 140 0.0 0.0 0.07 0.34 0.34 95 1019.0
20260831221915 66 146 0.0 0.0 0.07 0.34 0.34 95 1019.2
20260831221411 66 127 0.0 0.0 0.05 0.33 0.33 95 1019.2
20260831220905 66 145 0.0 0.0 0.05 0.33 0.33 95 1019.2
20260831220355 66 144 0.0 0.0 0.07 0.32 0.32 95 1019.2
20260831215850 66 143 0.0 0.0 0.12 0.32 0.32 95 1019.5
20260831215346 66 152 0.0 0.0 0.00 0.30 0.30 95 1019.6
20260831214842 66 153 0.0 0.0 0.00 0.30 0.30 95 1019.4
20260831214339 66 151 0.0 0.0 0.07 0.30 0.30 95 1019.4
20260831213834 66 127 0.0 0.0 0.07 0.30 0.30 95 1019.4
20260831213331 66 141 0.0 0.0 0.05 0.29 0.29 95 1019.6
20260831212826 66 140 0.0 0.0 0.05 0.29 0.29 95 1019.5
20260831212322 66 140 1.0 1.0 0.07 0.28 0.28 95 1019.5
20260831211820 66 154 0.0 0.0 0.12 0.28 0.28 95 1019.5
20260831211316 66 148 0.0 0.0 0.17 0.27 0.27 95 1019.5
20260831210810 66 143 0.0 0.0 0.19 0.26 0.26 95 1019.5
20260831210307 66 132 0.0 0.0 0.07 0.24 0.24 95 1019.5
20260831205806 66 142 1.0 2.0 0.00 0.23 0.23 95 1019.6
20260831205305 66 148 0.0 0.0 0.00 0.23 0.23 95 1019.4
20260831204756 66 115 2.0 3.0 0.00 0.23 0.23 95 1019.4
20260831204255 66 135 3.0 3.0 0.05 0.23 0.23 95 1019.4
20260831203755 66 133 2.0 2.0 0.05 0.23 0.23 95 1019.5
20260831203249 66 131 3.0 3.0 0.00 0.22 0.22 95 1019.7
20260831202748 66 134 2.0 2.0 0.00 0.22 0.22 95 1019.6
20260831202242 66 140 1.0 1.0 0.00 0.22 0.22 95 1019.5
20260831201737 66 122 3.0 3.0 0.00 0.22 0.22 95 1019.4
20260831201236 66 121 0.0 0.0 0.00 0.22 0.22 95 1019.7
20260831200732 66 138 2.0 2.0 0.00 0.22 0.22 95 1019.8
20260831200232 66 129 1.0 1.0 0.00 0.22 0.22 95 1019.7
20260831195727 66 109 0.0 1.0 0.00 0.22 0.22 95 1019.8
20260831195223 66 116 3.0 3.0 0.00 0.22 0.22 95 1019.8
20260831194718 65 107 0.0 0.0 0.00 0.22 0.22 95 1019.7
20260831194214 65 114 1.0 1.0 0.00 0.22 0.22 95 1019.8
20260831193707 65 93 0.0 0.0 0.00 0.22 0.22 95 1020.0
20260831193202 65 121 3.0 5.0 0.00 0.22 0.22 95 1020.0
20260831192657 65 133 2.0 2.0 0.00 0.22 0.22 95 1020.0
20260831192153 65 120 2.0 2.0 0.00 0.22 0.22 95 1019.8
20260831191648 65 122 2.0 2.0 0.07 0.22 0.22 95 1020.1
20260831191144 65 128 2.0 2.0 0.07 0.22 0.22 95 1020.1
20260831190639 65 124 1.0 1.0 0.00 0.21 0.21 95 1020.0
20260831190138 65 135 1.0 2.0 0.00 0.21 0.21 95 1020.2
20260831185634 65 112 4.0 5.0 0.00 0.21 0.21 95 1020.1
20260831185130 65 153 2.0 2.0 0.00 0.21 0.21 95 1020.2
20260831184629 65 104 5.0 7.0 0.00 0.21 0.21 95 1020.3
20260831184125 65 129 4.0 6.0 0.00 0.21 0.21 95 1020.3
20260831183624 65 106 3.0 3.0 0.00 0.21 0.21 95 1020.6
20260831183124 65 161 2.0 2.0 0.00 0.21 0.21 95 1020.5
20260831182623 65 127 3.0 5.0 0.00 0.21 0.21 95 1020.6
20260831182119 65 131 2.0 3.0 0.00 0.21 0.21 95 1020.7
20260831181614 65 119 2.0 2.0 0.00 0.21 0.21 95 1020.7
20260831181114 65 108 3.0 3.0 0.00 0.21 0.21 95 1020.7